Regional Weather Roundup
Issued by NWS Charleston, WV

Home | Current Version | Previous Version | Graphics & Text | Print | Product List | Glossary On
Versions: 1 2 3 4 5 6 7 8 9 10 11 12 13 14 15 16 17 18 19 20 21 22 23 24 25 26 27 28 29 30 31 32 33 34 35 36 37 38 39 40 41 42 43 44 45 46 47 48 49 50
000
ASUS41 KRLX 011710
RWRRLX
West Virginia Regional Weather Roundup
National Weather Service Charleston WV
100 PM EDT SAT AUG 01 2015

Note: "fair" indicates few or no clouds below 12,000 feet with no
significant weather and/or obstructions to visibility.

WVZ003-011800-
Northern Panhandle of West Virginia

CITY           SKY/WX    TMP DP  RH WIND       PRES   REMARKS
WHEELING       SUNNY     79  54  41 W6        29.96F
$$

WVZ009-011800-
Northwest West Virginia

CITY           SKY/WX    TMP DP  RH WIND       PRES   REMARKS
PARKERSBURG    MOSUNNY   82  53  36 NW10      30.01F
$$

WVZ006-011800-
Western West Virginia

CITY           SKY/WX    TMP DP  RH WIND       PRES   REMARKS
HUNTINGTON     MOSUNNY   81  55  40 NE5       30.00F
$$

WVZ015-011800-
West Central West Virginia

CITY           SKY/WX    TMP DP  RH WIND       PRES   REMARKS
CHARLESTON     MOSUNNY   82  55  39 NW10G18   30.00F
$$

WVZ022-031-011800-
North Central West Virginia

CITY           SKY/WX    TMP DP  RH WIND       PRES   REMARKS
CLARKSBURG     MOSUNNY   78  53  41 CALM      29.98F
MORGANTOWN     MOSUNNY   82  52  35 W6        29.98F
$$

WVZ025-035-042-045-011800-
Southern West Virginia

CITY           SKY/WX    TMP DP  RH WIND       PRES   REMARKS
BECKLEY        PTSUNNY   76  54  46 VRB3G16   30.07F
LOGAN            N/A     79  61  53 W8        30.00F
BLUEFIELD      MOSUNNY   78  52  40 NW8G17    30.10F
LEWISBURG      MOSUNNY   77  54  44 NW5       30.05F
$$

WVZ047-011800-
Northern Mountains of West Virginia

CITY           SKY/WX    TMP DP  RH WIND       PRES   REMARKS
ELKINS         MOSUNNY   76  54  46 W9        30.02F
$$

WVZ052-011800-
Eastern Panhandle of West Virginia

CITY           SKY/WX    TMP DP  RH WIND       PRES   REMARKS
MARTINSBURG    MOSUNNY   84  57  39 W9        29.91F
PETERSBURG     PTSUNNY  N/A N/A N/A W7        29.95F
$$


USA.gov is the U.S. government's official web portal to all federal, state and local government web resources and services.